星链-3582 (STARLINK-3582 )

导读

STARLINK-3582是美国太空探索技术公司(SpaceX)星链(Starlink)卫星互联网星座的一员,于2022年3月3日发射升空。星链星座旨在为全球提供低延迟、高速率的宽带互联网服务,该卫星属于星座部署中的批次卫星,运行在近地轨道,为全球覆盖的卫星互联网网络提供服务支撑。

Basic Information
目录编号:
51873
目录名称:
STARLINK-3582
国际标识:
2022-022X
轨道中心:
EARTH
卫星名称:
星链-3582
卫星全名:
星链-3582 (STARLINK-3582 )
卫星状态:
在轨 (已飞行1646 天)
发射日期:
2022-03-03 UTC
国别 :
美国 (US)
星等 :
--
Orbit Information
数据来源 国际轨道数据 AOE轨道数据
星历时间 2026-09-04T12:36:06+0800
6小时前
查看轨道信息
2026-09-02T06:00:00+0800
2天前
查看轨道信息
半长轴 6865.049km 6865.308km
偏心率 0.0005916 0.0006357
轨道倾角 53.202° 53.200°
近地点辐角 59.371° 52.629°
升交点赤经 267.442° 277.939°
平近点角 300.787° 40.096°
近地点 482.85km 482.806km
远地点 490.974km 491.536km
周期 94.346分钟 94.352分钟
每日圈数 15.262909 15.262046
Detailed Information
固有亮度:
5
最大亮度:
2.5
卫星平台:
Starlink v1.5
覆盖范围:
全球
运营商:
太空探索技术公司
运营商所在国:
美国
制造商(研发单位):
太空探索技术公司
制造商所在国:
美国
使用方式:
暂无
Satellite Introduction
星链(Starlink)计划是由太空探索技术公司(SpaceX)提出的一个巨型低轨卫星互联网星座项目,计划在2019年至2024年间在太空搭建由约1.2万颗卫星组成的“星链”网络,其中1584颗将部署在地球上空550千米处的近地轨道,并从2020年开始工作。该卫星仍在工作。
2D Orbit Map
3D Orbit Map
Orbit Altitude Analysis Chart
Orbit Inclination Analysis Chart
Orbit Comprehensive Analysis Chart
View Comprehensive Chart
Conjunction Data List
Event ID Objects TCA Miss Dist (km) Collision Risk Probability Collision Risk Index (CRI) Action
CDM_260905-065505-187306-452821
2026-09-05T
06:55:36+0000
0.697 km
远距离
7.493257E-5 中风险 0.72
CDM_260904-185805-187305-486921
2026-09-04T
18:58:52+0000
0.782 km
远距离
3.622876E-5 中风险 0.66
CDM_260904-093005-187305-765222
2026-09-04T
09:30:33+0000
1.656 km
极远距离
3.507576E-6 低风险 0.46
CDM_260905-024005-187305-966321
2026-09-05T
02:40:35+0000
1.864 km
极远距离
2.871425E-6 低风险 0.44
CDM_260905-024105-187305-603121
2026-09-05T
02:41:08+0000
1.889 km
极远距离
2.753202E-6 低风险 0.44
CDM_260904-105505-187305-903921
2026-09-04T
10:55:16+0000
2.287 km
极远距离
1.775341E-6 低风险 0.4
CDM_260905-195305-187305-724121
2026-09-05T
19:53:50+0000
2.681 km
极远距离
1.338164E-6 低风险 0.38
CDM_260904-140305-187306-695921
2026-09-04T
14:03:10+0000
2.813 km
极远距离
1.247711E-6 低风险 0.37
CDM_260905-134905-187305-770421
2026-09-05T
13:49:59+0000
2.623 km
极远距离
1.075527E-6 低风险 0.36
CDM_260906-134305-187305-654721
2026-09-06T
13:43:40+0000
1.989 km
极远距离
1.075488E-6 低风险 0.36